Погода в Златоусте

Россия / Челябинская область     55°10′23″N   59°40′20″E
темп.,
°C
ветер,
м/с
пор.,
м/с
влажн.,
%
обл.,
%
осадки,
мм/ч
давл.,
гПа
погр.,
м
1 марта, пн
пн123:00−17вюв229799 0.3 101059
02:00−17вюв129794 0.1 101241
05:00−18вюв129894 0.2 101341
08:00−18юв1198100 0.3 101553
11:00−14юв129099 0.4 1016232
14:00−9ююв1187100 0.1 1016342
17:00−9ю0190100 0.3 1016292
20:00−14зюз1198100 0.3 101722
2 марта, вт
вт223:00−15з1198100 0.3 101722
02:00−17зсз129991 0.1 101720
05:00−19з129990 0.1 101620
08:00−20зюз1110080 0.0 101420
11:00−12зюз138746 0.0 1012247
14:00−6юз268145 0.0 1008692
17:00−6юз398371 0.0 1006831
20:00−8юз2896100 0.8 1004660
3 марта, ср
ср323:00−12з2994100 1.1 1004442
02:00−13ююз2391100 0.0 100292
05:00−11ююз2591100 0.0 1001157
08:00−10юз2690100 0.0 999173
11:00−4зюз498596 0.0 999739
14:00−3з5984100 0.1 9981124
17:00−3з3792100 0.5 999739
20:00−6зюз2497100 0.6 999172
4 марта, чт
чт423:00−8з269795 0.8 1000170
02:00−10зюз259799 0.2 999122
05:00−11зюз259697 0.3 1000147
08:00−10з31296100 0.1 999468
11:00−9з61292100 0.5 1001739
14:00−8зсз7118998 0.4 1002932
17:00−9з6119099 0.6 1003879
20:00−11з41394100 0.1 1005549
5 марта, пт
пт523:00−14зюз269288 0.1 1005154
02:00−11ююз3149096 0.0 1002749
05:00−10юз4178898 0.0 1000912
08:00−6зюз41888100 0.0 9981126
11:00−3зюз101983100 0.1 9971390
14:00−2з102085100 0.2 10001924
17:00−4з10206686 1.2 10031792
20:00−8з817810 0.0 1006927